ORBCOMM FM 18

Satellite information

Favourite Embed

Satellite Type and Status

PAYLOADIN ORBIT

Key statistics

Satellite ORBCOMM FM 18 at a glance.

Uptime

9834

Days in orbit

Revolutions

≈ 14.4

Per day

Orbit

LEO

Low Earth Orbit

Inclination

45.0

Latest

Satellite identification and parameters

Extended collection of information and parameters for ORBCOMM FM 18.

Object identification

Identified? True

Debris? False

Object name: ORBCOMM FM 18

International designator: 1998-046B

Object number (NORAD): 25414

Object ID (CCSDS): 25414

Country: ORBITAL TELECOMMUNICATIONS SATELLITE (GLOBALSTAR) (ORB)

Current information (Y/N): Y

RCS size: MEDIUM

Orbital parameters

Period: 100.098 minutes

Inclination: 44.9932 deg

SMA: 7141.297 km

Apoapsis: 767.391 km

Periapsis: 758.934 km

RAAN: 91.497 deg

Eccentricy: 0.0005921

Argument of periapsis: 7.2499 deg

Mean anomaly: 352.8434 deg

Mean motion: 14.38590168 rev/day

Mean motion (dot): 0.00000826 rev/day2

B* drag term: 0.00031345 1/REarth

Two-line elements (TLE)

Creation date: July 4, 2025, 10:36 p.m.

Reference frame: TEME

Reference center: EARTH

Epoch: July 4, 2025, 6:44 p.m. UTC

TLE line 0: 0 ORBCOMM FM 18

TLE line 1: 1 25414U 98046B 25185.78092784 .00000826 00000-0 31345-3 0 9994

TLE line 2: 2 25414 44.9932 91.4970 0005921 7.2499 352.8434 14.38590168406955

Live tracking on map

Real-time ground track for satellite ORBCOMM FM 18.

In-orbit conjunctions

There are no conjunctions computed for ORBCOMM FM 18, at the moment. Check back to stay up to date, as we update our databases every day.

Go to all conjunctions

Associated space launch

ORBCOMM FM 18 was lifted into orbit during the mission ‘Pegasus XL HAPS | Orbcomm-B1 - B8’, on board a Pegasus XL HAPS space rocket.

The launch took place on Aug. 2, 1998, 4:24 p.m. from Wallops Flight Facility.

For more information about the launch, click the button.

Launch to space Pegasus XL HAPS | Orbcomm-B1 - B8
Pegasus XL HAPS | Orbcomm-B1 - B8

Agency: N/A

Status: Launch Successful

Launch date: Aug. 2, 1998, 4:24 p.m. UTC

Rocket: Pegasus XL HAPS

Launch pad: Wallops Flight Facility

Location: Air launch to orbit

...

Latest news about this satellite

There are no fresh news available about this satellite. Check back as we update our databases every day.


Newsletter sign-up

Weekly statistics, charts and insights to help you stay on top of the space industry.